Temperature
19 19 19 19 18 18 18 18 18 17 17 17 17 16 16 16 16 15 15 15 15 15 15 15 15 15 15 15 14 14 14 14 14 14 14 14 14 14 14 14 14 14 14
18 18 18 18 18 18 18 18 18 17 17 17 17 16 16 16 16 15 15 15 15 15 15 15 15 15 14 14 14 14 14 14 14 14 14 14 14 14 14 14 14 14 14
18 18 18 18 18 18 18 18 18 17 17 17 17 16 16 16 16 16 15 15 15 15 15 15 15 15 14 14 14 14 14 14 14 14 14 14 14 14 13 13 13 13 13
18 18 18 18 18 18 18 18 18 17 17 17 17 16 16 16 16 16 15 15 15 15 15 15 15 15 14 14 14 14 14 14 14 14 14 14 14 13 13 13 13 13 13
18 18 18 18 18 18 18 17 17 17 17 17 16 16 16 16 16 16 15 15 15 15 15 15 15 14 14 14 14 14 14 14 14 13 13 13 13 13 13 13 13 13 13
18 18 18 18 18 18 17 17 17 17 17 16 16 16 16 16 16 16 15 15 15 15 15 15 14 14 14 14 14 14 14 14 13 13 13 13 13 13 13 13 13 13 13
18 18 18 18 18 18 17 17 17 17 17 16 16 16 16 16 16 15 15 15 15 15 15 15 14 14 14 14 14 14 14 13 13 13 13 13 13 13 13 13 13 12 12
18 18 18 18 18 18 17 17 17 17 16 16 16 16 16 15 15 15 15 15 15 15 15 14 14 14 14 14 14 13 13 13 13 13 13 13 13 13 13 12 12 12 12
17 17 17 18 18 18 17 17 17 17 16 16 16 16 15 15 15 15 15 15 15 14 14 14 14 14 14 14 13 13 13 13 13 13 13 13 13 12 12 12 12 12 12
17 17 17 17 17 17 17 17 17 16 16 16 16 15 15 15 15 15 15 14 14 14 14 14 14 14 13 13 13 13 13 13 13 13 12 12 12 12 12 12 12 12 12
17 17 17 17 17 17 17 17 16 16 16 15 15 15 15 15 15 15 14 14 14 14 14 14 14 13 13 13 13 13 13 13 13 12 12 12 12 12 12 12 12 12 12
17 17 17 17 17 16 16 16 16 16 16 15 15 15 15 15 15 14 14 14 14 14 14 13 13 13 13 13 13 13 13 13 12 12 12 12 12 12 12 12 12 12 12
17 17 16 16 16 16 16 16 16 16 15 15 15 15 15 15 14 14 14 14 13 13 13 13 13 13 13 13 13 12 12 12 12 12 12 12 12 12 12 12 12 12 11
16 16 16 16 16 16 16 16 15 15 15 15 15 15 14 14 14 14 14 13 13 13 13 13 13 13 12 12 12 12 12 12 12 12 12 12 11 11 11 11 11 11 11
16 16 16 16 16 16 16 15 15 15 15 14 14 14 14 14 14 13 13 13 13 13 13 13 12 12 12 12 12 12 12 12 12 11 11 11 11 11 11 11 11 11 11
16 16 16 16 16 15 15 15 15 14 14 14 14 14 14 13 13 13 13 13 13 12 12 12 12 12 12 12 11 11 11 11 11 11 11 11 11 11 11 11 11 10 10
16 16 16 16 15 15 15 15 14 14 14 14 14 13 13 13 13 13 13 12 12 12 12 12 12 11 11 11 11 11 11 11 11 11 11 11 10 10 10 10 10 10 10
16 16 15 15 15 15 14 14 14 14 14 13 13 13 13 12 12 12 12 12 12 12 12 11 11 11 11 11 11 11 11 11 11 10 10 10 10 10 10 10 10 10 10
16 15 15 15 15 15 14 14 14 14 13 13 13 13 13 12 12 12 12 12 12 11 11 11 11 11 11 10 10 10 10 10 10 10 10 10 10 10 10 10 10 10 10
15 15 15 15 14 14 14 14 14 13 13 13 13 12 12 12 12 12 12 11 11 11 11 11 10 10 10 10 10 10 10 10 10 10 10 10 10 9 9 9 9 9 9
15 15 14 14 14 14 13 13 13 13 13 13 12 12 12 12 12 11 11 11 11 11 11 10 10 10 10 10 10 10 10 10 9 9 9 9 9 9 9 9 9 9 9
14 14 14 14 14 13 13 13 13 12 12 12 12 12 12 11 11 11 11 11 10 10 10 10 10 10 10 9 9 9 9 9 9 9 9 9 9 9 9 9 9 9 9
14 14 13 13 13 13 12 12 12 12 12 12 11 11 11 11 11 11 10 10 10 10 10 10 9 9 9 9 9 9 9 9 9 9 9 9 8 8 8 8 8 8 8
13 13 13 13 12 12 12 12 12 11 11 11 11 11 11 10 10 10 10 10 9 9 9 9 9 9 9 9 9 9 9 9 9 8 8 8 8 8 8 8 8 8 8
12 12 12 12 12 12 11 11 11 11 11 11 10 10 10 10 10 10 9 9 9 9 9 9 8 8 8 8 8 8 8 8 8 8 8 8 8 8 8 8 8 7 7
12 12 12 11 11 11 11 11 10 10 10 10 10 10 10 10 9 9 9 9 8 8 8 8 8 8 8 8 8 8 8 8 7 7 7 7 7 7 7 7 7 7 7
Wind_Speed
5 2 3 3 3 3 3 4 4 3 3 2 2 2 1 1 1 1 1 2 3 4 4 3 2 3 2 2 3 2 3 2 2 3 3 3 3 3 3 3 3 4 5
3 2 2 3 4 4 3 4 4 4 3 3 2 2 2 1 1 1 1 1 2 3 4 3 3 2 2 2 2 2 2 1 2 2 2 2 3 3 3 3 2 3 3
6 4 4 4 4 4 5 4 4 4 3 3 3 3 3 2 1 1 0 0 2 3 3 3 3 3 3 3 2 2 3 1 1 2 3 2 2 1 2 2 3 2 2
5 5 5 5 5 5 4 4 4 3 3 4 4 4 3 2 3 2 1 1 1 2 3 3 3 3 3 3 3 2 2 3 1 1 1 2 3 2 1 2 2 2 2
7 6 6 7 6 5 4 4 4 4 3 3 4 4 3 2 1 0 1 1 0 1 2 3 3 3 2 3 3 2 2 2 3 2 2 2 2 2 2 1 2 2 2
7 6 5 4 4 3 3 3 4 4 3 4 4 4 4 2 2 1 1 1 1 1 1 3 3 3 2 3 3 3 3 2 2 2 2 3 2 2 2 2 1 2 2
6 6 6 5 5 4 5 4 5 4 3 4 4 4 4 4 3 3 3 2 2 2 3 3 3 3 3 3 3 3 3 3 3 3 2 2 2 3 3 3 2 1 2
7 7 8 7 7 6 5 5 5 4 4 4 4 4 3 3 3 3 3 3 3 3 3 3 3 3 3 3 3 3 3 3 3 3 2 2 2 2 3 3 3 1 1
6 6 6 6 6 6 6 6 6 5 4 5 4 4 4 3 3 3 3 2 2 2 3 3 3 3 3 3 3 2 3 3 3 3 3 2 2 2 2 2 3 4 2
5 5 4 5 5 6 5 5 6 6 5 4 4 3 4 4 3 3 3 3 3 2 3 3 3 3 3 3 3 3 2 3 2 2 3 2 1 1 2 2 2 2 3
6 5 5 4 5 5 5 5 5 5 4 5 4 3 3 3 3 3 3 3 3 3 3 4 4 3 3 3 4 3 3 3 2 2 3 2 2 2 2 2 2 2 2
4 4 4 3 3 4 5 5 5 5 5 4 4 4 3 2 3 3 3 3 3 3 3 3 3 4 3 4 4 4 4 4 4 3 3 2 2 2 2 2 3 2 3
3 2 2 3 3 4 5 5 5 5 4 4 3 3 3 3 3 4 3 3 3 3 2 3 3 4 4 4 4 4 4 4 4 4 4 3 3 2 2 3 3 2 2
3 3 3 3 4 4 4 4 5 4 4 4 4 4 4 4 4 3 3 3 3 3 3 3 3 3 3 3 4 4 4 4 3 3 4 4 4 4 4 3 3 3 2
3 4 4 4 3 3 3 3 4 4 4 4 4 4 3 3 2 2 2 2 2 3 3 3 2 2 3 3 3 4 4 4 4 3 3 4 5 5 4 3 3 3 3
4 4 4 4 4 5 4 4 4 4 4 5 5 3 2 2 2 2 2 2 2 2 3 3 3 3 3 4 5 4 4 4 4 4 3 4 4 4 5 5 5 5 4
5 5 5 5 5 5 5 6 5 4 4 4 3 3 3 3 3 3 2 3 3 3 3 3 3 3 3 4 4 5 4 4 4 4 3 3 2 3 3 3 3 4 5
5 5 5 4 4 4 4 4 4 4 4 4 4 3 3 3 3 3 3 3 2 3 3 3 3 3 3 3 4 4 4 3 3 4 4 3 3 3 3 3 2 2 3
5 5 4 4 3 2 3 3 3 4 4 4 4 4 4 4 4 3 3 3 2 2 3 2 3 3 3 3 3 3 3 2 3 3 3 3 4 4 3 3 2 2 3
2 2 2 1 1 1 2 3 4 5 5 6 5 5 5 5 5 5 3 2 2 2 2 2 2 2 2 2 3 4 3 2 2 2 2 3 3 3 4 4 3 3 4
2 2 2 2 2 1 2 3 4 5 6 4 4 4 4 5 4 3 2 3 3 3 2 2 1 1 1 1 2 4 3 3 3 2 2 2 3 3 3 3 3 5 3
1 2 2 1 0 2 3 2 3 4 3 3 3 3 3 3 3 4 3 3 4 3 2 2 1 1 1 1 1 2 3 4 3 3 3 3 3 2 2 2 2 2 2
1 1 2 1 0 1 2 3 3 2 2 2 2 3 3 3 3 4 4 3 3 3 2 2 1 1 1 1 1 1 2 3 3 3 3 2 2 2 2 1 1 1 1
1 1 2 1 1 1 2 3 2 1 2 2 2 2 3 3 3 3 4 4 4 3 3 2 2 1 1 1 1 1 1 1 2 1 1 1 1 1 0 0 1 1 2
1 1 2 2 2 2 1 1 2 2 2 2 2 2 3 3 3 3 3 4 4 5 4 3 3 3 2 3 2 1 1 1 2 2 1 1 1 0 1 1 1 1 1
1 1 2 2 2 2 2 1 1 3 3 2 2 2 2 2 3 3 2 1 3 4 4 4 4 3 2 2 2 1 1 1 3 3 2 1 1 2 2 1 1 1 1
Wind_Direction
232 203 178 157 140 143 143 152 157 157 137 124 137 138 155 142 102 92 119 134 139 143 141 132 123 114 118 121 115 102 79 60 70 77 45 20 30 47 41 38 41 36 41
225 205 169 152 164 166 166 165 169 160 163 164 156 151 142 145 163 77 71 122 150 153 152 149 154 141 126 116 117 111 97 69 71 105 91 26 358 11 25 31 47 31 37
203 206 187 181 172 176 179 180 179 169 171 155 120 92 69 48 44 27 262 319 166 168 159 155 151 154 153 163 163 143 131 132 48 83 131 135 221 314 348 18 28 20 32
197 194 188 186 191 200 183 171 166 159 161 156 150 148 157 184 215 210 213 218 161 159 161 158 156 161 163 170 181 159 148 140 143 80 75 132 155 148 333 343 360 10 24
193 192 193 194 197 192 177 175 157 155 158 155 160 154 161 189 197 186 194 210 162 147 158 160 152 165 172 177 176 159 159 154 156 156 139 107 81 107 146 251 324 349 349
198 197 197 185 184 173 166 163 157 167 164 162 159 165 172 162 143 175 200 223 218 197 183 171 166 171 175 181 185 174 168 170 161 158 154 153 156 170 159 183 238 286 307
194 193 187 185 187 176 175 173 169 178 174 170 174 186 183 175 182 196 207 207 212 219 214 192 183 181 188 180 169 169 174 169 168 174 179 181 183 162 157 157 186 248 299
194 195 195 192 191 186 179 173 177 185 178 184 197 198 189 191 203 204 206 208 214 221 207 194 190 188 182 177 168 176 187 175 182 183 172 177 199 173 167 164 155 165 308
197 196 194 192 189 188 187 183 182 185 191 196 198 199 200 206 209 209 212 218 222 212 191 192 192 190 182 178 171 179 192 178 189 192 182 186 210 188 185 167 162 163 200
193 193 194 197 196 194 190 184 187 194 200 200 206 210 212 216 210 194 211 219 223 207 188 190 195 195 190 183 176 178 179 165 182 182 177 197 201 181 172 174 175 170 175
197 195 198 202 198 189 182 183 190 197 200 202 208 213 219 213 200 205 218 218 219 204 201 199 192 195 197 187 178 184 172 175 184 182 183 208 191 176 177 170 169 171 163
199 197 192 182 187 192 192 191 194 198 205 204 201 210 210 192 196 219 226 214 214 209 203 196 192 196 198 191 185 192 183 181 189 196 189 210 190 187 186 180 187 190 186
186 180 177 192 204 209 205 201 201 202 198 189 189 198 197 194 208 220 222 212 208 202 189 191 198 200 199 194 196 191 187 189 196 196 197 207 186 204 206 199 202 202 193
183 189 201 213 215 216 213 210 211 201 189 181 185 199 209 211 215 212 211 210 197 185 190 201 205 200 193 190 195 189 187 190 199 203 206 207 199 208 209 208 207 198 186
194 207 215 220 221 222 222 215 212 201 187 180 189 208 214 210 203 199 202 200 197 194 184 184 192 193 189 197 189 190 191 192 202 212 220 222 215 215 208 206 201 190 189
217 220 220 220 221 221 221 215 213 205 185 187 200 202 187 183 190 194 186 175 183 181 162 176 186 201 212 201 187 181 188 192 199 215 234 235 223 229 227 223 207 192 189
217 218 222 220 224 222 212 210 210 193 183 192 197 191 183 186 199 192 173 186 188 175 180 189 191 212 223 206 195 190 183 193 204 212 222 232 230 215 216 225 218 218 216
215 221 227 227 226 218 215 205 190 181 183 188 193 192 184 193 189 176 186 198 183 179 195 195 197 205 226 205 200 190 181 191 209 215 215 216 232 219 200 197 206 232 238
212 215 216 214 208 209 205 184 183 184 185 195 200 198 190 188 182 189 201 195 174 183 189 184 183 193 230 210 187 171 178 198 225 230 220 215 224 230 191 172 196 240 262
193 188 178 150 166 218 177 176 190 193 205 209 206 199 190 187 191 196 196 185 169 175 167 165 172 181 215 206 178 157 168 190 220 239 240 234 231 229 193 183 193 226 252
172 156 143 156 200 183 155 185 203 217 221 207 194 190 189 189 187 181 173 159 149 142 140 142 150 162 220 223 185 164 168 184 191 212 237 248 236 218 199 195 207 226 221
125 133 143 180 162 147 150 182 233 240 214 182 179 182 183 181 169 158 155 150 144 141 140 131 97 344 301 297 222 194 186 173 177 211 230 237 218 206 201 207 233 216 190
150 157 158 157 324 181 173 198 241 230 172 156 173 176 169 165 159 158 155 146 147 151 158 158 183 268 303 304 290 240 206 193 188 216 215 212 203 204 212 220 195 164 159
170 158 146 164 245 253 220 213 223 180 154 163 181 175 165 162 157 157 159 157 163 167 171 176 205 238 279 293 287 274 249 193 200 222 234 148 119 123 246 239 220 203 192
202 179 180 209 238 242 244 239 204 161 151 166 178 175 175 173 167 164 171 171 178 175 177 193 197 198 231 250 217 174 204 199 190 152 101 76 75 50 0 333 277 240 203
210 197 207 221 242 241 249 252 206 174 166 175 194 193 179 173 167 165 159 157 164 167 170 175 179 210 224 214 178 176 167 161 155 134 137 178 202 221 238 236 249 253 239
Height
1521 1523 1525 1526 1528 1530 1531 1532 1534 1535 1536 1536 1537 1538 1538 1539 1539 1540 1540 1541 1541 1542 1542 1542 1542 1542 1542 1542 1542 1542 1543 1543 1543 1543 1543 1544 1544 1544 1545 1545 1544 1544 1544
1520 1521 1523 1525 1526 1528 1530 1531 1532 1534 1535 1536 1536 1537 1538 1538 1539 1540 1540 1541 1541 1541 1542 1542 1542 1542 1542 1542 1542 1542 1542 1542 1543 1543 1543 1544 1545 1544 1544 1544 1544 1544 1544
1517 1519 1521 1523 1524 1526 1528 1529 1531 1532 1534 1535 1536 1536 1537 1538 1538 1539 1539 1540 1540 1540 1541 1541 1542 1541 1541 1541 1542 1542 1542 1542 1542 1543 1543 1543 1543 1544 1544 1544 1544 1544 1544
1515 1517 1519 1521 1522 1524 1526 1528 1529 1531 1532 1533 1534 1535 1535 1536 1537 1537 1538 1538 1539 1539 1540 1540 1541 1541 1541 1541 1541 1541 1541 1541 1541 1542 1542 1543 1543 1543 1543 1544 1544 1544 1544
1513 1515 1517 1519 1521 1523 1524 1526 1528 1529 1530 1531 1532 1533 1534 1535 1535 1536 1536 1537 1537 1537 1538 1539 1539 1539 1540 1540 1540 1540 1540 1541 1541 1541 1541 1541 1542 1542 1542 1542 1543 1543 1543
1511 1513 1515 1517 1519 1521 1523 1524 1526 1527 1528 1529 1530 1531 1532 1532 1533 1533 1534 1534 1535 1535 1536 1537 1537 1537 1538 1538 1538 1539 1539 1539 1540 1540 1540 1540 1541 1541 1541 1541 1541 1541 1542
1508 1510 1512 1514 1516 1518 1520 1522 1523 1524 1526 1527 1528 1529 1529 1530 1530 1531 1531 1532 1532 1533 1533 1534 1535 1535 1536 1536 1536 1537 1537 1538 1538 1538 1539 1539 1539 1539 1540 1540 1539 1539 1540
1505 1507 1509 1511 1513 1515 1517 1519 1520 1522 1523 1524 1525 1526 1527 1527 1528 1528 1529 1529 1530 1530 1531 1531 1532 1533 1533 1534 1534 1535 1535 1536 1536 1537 1537 1537 1538 1538 1538 1538 1538 1538 1538
1502 1504 1506 1508 1511 1513 1515 1516 1518 1519 1520 1521 1522 1523 1524 1524 1525 1525 1526 1527 1527 1528 1528 1529 1529 1530 1531 1531 1532 1532 1533 1533 1534 1534 1535 1535 1536 1536 1536 1536 1537 1537 1536
1500 1502 1504 1506 1508 1510 1512 1514 1515 1516 1517 1519 1519 1520 1521 1521 1522 1523 1523 1524 1525 1525 1526 1526 1527 1527 1528 1529 1529 1530 1530 1531 1531 1532 1532 1533 1533 1533 1534 1534 1534 1535 1535
1498 1500 1502 1504 1505 1507 1509 1510 1512 1513 1514 1515 1516 1517 1517 1518 1519 1519 1520 1520 1521 1522 1522 1523 1524 1524 1525 1526 1526 1527 1527 1528 1528 1529 1529 1530 1531 1531 1531 1532 1532 1532 1532
1497 1498 1500 1501 1503 1504 1505 1507 1508 1510 1511 1512 1513 1513 1514 1514 1515 1516 1517 1517 1518 1518 1519 1520 1520 1521 1522 1522 1523 1523 1524 1525 1525 1526 1526 1527 1528 1528 1529 1529 1529 1529 1529
1496 1497 1498 1499 1500 1501 1502 1503 1505 1506 1507 1508 1509 1510 1510 1511 1511 1512 1513 1513 1514 1515 1515 1516 1517 1517 1518 1519 1519 1520 1521 1521 1522 1523 1523 1524 1524 1525 1525 1526 1526 1526 1527
1494 1495 1496 1497 1497 1498 1499 1500 1501 1503 1504 1505 1505 1506 1506 1507 1508 1508 1509 1510 1510 1511 1511 1512 1513 1514 1514 1515 1516 1516 1517 1518 1518 1519 1520 1520 1521 1521 1522 1522 1523 1523 1523
1491 1492 1493 1494 1495 1496 1496 1497 1498 1499 1500 1501 1502 1502 1503 1504 1504 1505 1506 1506 1507 1507 1508 1508 1509 1510 1510 1511 1512 1512 1513 1514 1515 1515 1516 1517 1517 1518 1519 1519 1519 1520 1520
1489 1490 1491 1491 1492 1493 1493 1494 1495 1496 1497 1497 1498 1499 1499 1500 1501 1501 1502 1503 1503 1504 1504 1505 1505 1506 1506 1507 1508 1509 1510 1510 1511 1512 1513 1513 1514 1514 1515 1515 1516 1517 1517
1486 1487 1488 1488 1489 1490 1490 1491 1492 1493 1493 1494 1494 1495 1496 1496 1497 1498 1498 1499 1500 1500 1501 1501 1502 1502 1503 1504 1505 1506 1506 1507 1507 1508 1509 1510 1510 1511 1511 1512 1512 1513 1513
1484 1484 1485 1486 1487 1487 1488 1488 1489 1490 1490 1491 1491 1492 1493 1493 1494 1494 1495 1496 1496 1497 1497 1497 1498 1499 1500 1501 1502 1502 1503 1503 1504 1505 1505 1506 1507 1507 1508 1508 1508 1509 1509
1481 1482 1483 1483 1484 1484 1485 1485 1486 1486 1487 1487 1488 1489 1490 1490 1491 1491 1492 1492 1493 1493 1494 1494 1495 1496 1497 1498 1498 1499 1499 1500 1500 1501 1502 1502 1503 1504 1504 1504 1504 1505 1505
1479 1480 1481 1481 1481 1482 1482 1482 1483 1483 1483 1484 1485 1486 1487 1487 1487 1488 1489 1489 1490 1490 1491 1492 1492 1493 1493 1494 1495 1495 1496 1496 1497 1497 1498 1499 1499 1500 1500 1501 1501 1501 1501
1477 1478 1478 1479 1479 1479 1479 1479 1480 1480 1480 1481 1482 1483 1483 1484 1484 1485 1486 1486 1487 1488 1488 1489 1489 1489 1490 1491 1491 1491 1492 1492 1493 1494 1494 1495 1496 1496 1496 1497 1497 1498 1498
1475 1476 1476 1476 1477 1477 1477 1477 1477 1477 1478 1478 1479 1480 1480 1481 1481 1482 1483 1483 1484 1484 1485 1486 1486 1486 1487 1488 1488 1488 1489 1489 1490 1490 1491 1491 1492 1492 1493 1493 1493 1494 1494
1474 1474 1474 1474 1474 1475 1475 1475 1475 1475 1475 1475 1476 1477 1477 1478 1478 1479 1479 1480 1480 1481 1482 1482 1483 1483 1484 1484 1485 1485 1485 1486 1486 1487 1487 1488 1488 1489 1489 1489 1490 1490 1490
1472 1472 1472 1472 1472 1473 1473 1473 1473 1473 1473 1472 1473 1473 1474 1475 1475 1476 1476 1477 1477 1478 1478 1479 1480 1480 1480 1481 1481 1481 1481 1482 1482 1483 1484 1485 1485 1485 1485 1485 1486 1486 1486
1469 1470 1470 1470 1470 1470 1470 1470 1470 1470 1470 1470 1470 1471 1471 1472 1472 1473 1474 1474 1475 1476 1476 1477 1477 1477 1477 1478 1478 1478 1478 1478 1479 1480 1480 1480 1481 1481 1481 1481 1481 1482 1482
1467 1467 1468 1468 1468 1468 1468 1468 1468 1468 1467 1467 1468 1468 1468 1469 1470 1470 1471 1472 1473 1473 1474 1475 1475 1475 1475 1475 1475 1475 1475 1475 1476 1476 1476 1476 1476 1477 1477 1477 1477 1477 1478